Tracking 19245 objects as of 18-Aug-2018
HD Live streaming from Space Station
objects crossing your sky now

FENGYUN 1C DEB

Track FENGYUN 1C DEB now!
10-day predictions


NORAD ID: 30113
Int'l Code: 1999-025RS
Perigee: 789.4 km
Apogee: 875.5 km
Inclination: 99.0 °
Period: 101.4 minutes
Semi major axis: 7203 km
RCS: 0.032 m2 (small)
Launch date: May 10, 1999
Source: People's Republic of China (PRC)
Launch site: Taiyaun Space Center, China (TSC)

Note: This is SATELLITE DEBRIS
aabbcc
Your satellite tracking list
Your tracking list is empty




NASA's NSSDC Master Catalog

Two Line Element Set (TLE):
1 30113U 99025RS  18229.26961677  .00000639  00000-0  31591-3 0  9999
2 30113  98.9556 326.9963 0059793 160.7250 257.8897 14.20014461597969
Source of the keplerian elements: AFSPC